Weather History for Spokane Fairchild, WA

Change the Weather History Date:

Thursday, October 27, 2011

  Actual Average Record
Temperature  
Mean Temperature 36 °F -  
Max Temperature 50 °F 47 °F 64 °F (1998)
Min Temperature 24 °F 30 °F 24 °F (2002)
Degree Days  
Heating Degree Days 29    
Moisture  
Dew Point 24 °F    
Average Humidity 66    
Maximum Humidity 91    
Minimum Humidity 36    
Precipitation  
Precipitation 0.00 in - - ()
Sea Level Pressure  
Sea Level Pressure 30.34 in    
Wind  
Wind Speed 2 mph (North)    
Max Wind Speed 4 mph    
Max Gust Speed -    
Visibility 10 miles    
Events      
Averages and records for this station are not official NWS values.
T = Trace of Precipitation, MM = Missing Value Source: NWS Daily Summary

Daily Weather History Graph

Daily Weather History Graph

Search for Another Location

Airport:

Trip Planner

Search our weather history database for the weather conditions in past years. The results will help you decide how hot, cold, wet, or windy it might be!

Date:

Astronomy

Oct. 27, 2011 Rise Set
Actual Time 7:26 AM PDT 5:41 PM PDT
Civil Twilight 6:55 AM PDT 6:13 PM PDT
Nautical Twilight 6:18 AM PDT 6:49 PM PDT
Astronomical Twilight 5:43 AM PDT 7:24 PM PDT
Moon 8:45 AM PDT 6:03 PM PDT
Length of Visible Light 11h 18m
Length of Day
10h 14m
New Moon, 1% of the Moon is Illuminated
Oct 27
New Moon
Nov 2
First Quarter
Nov 10
Full
Nov 18
Last Quarter
Nov 24
New

Hourly Weather History & Observations

Time (PDT) Temp. Windchill Dew Point Humidity Pressure Visibility Wind Dir Wind Speed Gust Speed Precip Events Conditions
12:55 AM 32.5 °F - 25.0 °F 74% 30.25 in 10.0 mi NNW 2.3 mph - N/A   Scattered Clouds
1:55 AM 29.3 °F - 23.9 °F 80% 30.26 in 10.0 mi West 1.2 mph - N/A   Clear
2:55 AM 28.9 °F 25.2 °F 24.1 °F 82% 30.27 in 10.0 mi WSW 3.5 mph - N/A   Mostly Cloudy
3:55 AM 27.5 °F - 24.1 °F 87% 30.28 in 10.0 mi Calm Calm - N/A   Clear
4:55 AM 26.8 °F - 23.4 °F 87% 30.30 in 10.0 mi NNW 2.3 mph - N/A   Clear
5:55 AM 24.1 °F - 21.6 °F 90% 30.32 in 10.0 mi Calm Calm - N/A   Clear
6:55 AM 24.3 °F - 22.1 °F 91% 30.32 in 10.0 mi WSW 1.2 mph - N/A   Clear
7:55 AM 24.4 °F - 21.7 °F 89% 30.36 in 10.0 mi Calm Calm - N/A   Clear
8:55 AM 30.9 °F - 25.0 °F 79% 30.36 in 10.0 mi Calm Calm - N/A   Clear
9:55 AM 36.1 °F 33.5 °F 28.0 °F 72% 30.36 in 10.0 mi NE 3.5 mph - N/A   Clear
10:55 AM 42.1 °F - 27.9 °F 57% 30.36 in 10.0 mi East 1.2 mph - N/A   Clear
11:55 AM 44.2 °F - 26.8 °F 50% 30.37 in 10.0 mi NNE 2.3 mph - N/A   Clear
12:55 PM 46.4 °F - 25.7 °F 44% 30.34 in 10.0 mi Calm Calm - N/A   Clear
1:55 PM 48.0 °F - 25.2 °F 41% 30.35 in 10.0 mi SE 1.2 mph - N/A   Clear
2:55 PM 48.2 °F - 23.4 °F 38% 30.35 in 10.0 mi NNE 2.3 mph - N/A   Clear
3:55 PM 47.8 °F - 22.1 °F 36% 30.35 in 10.0 mi NNE 3.5 mph - N/A   Clear
4:55 PM 46.8 °F - 21.4 °F 37% 30.35 in 10.0 mi Variable 3.5 mph - N/A   Clear
5:55 PM 42.1 °F - 24.1 °F 49% 30.36 in 10.0 mi Calm Calm - N/A   Clear
7:55 PM 35.4 °F - 23.9 °F 63% 30.40 in 10.0 mi Calm Calm - N/A   Clear
8:55 PM 32.2 °F - 22.6 °F 68% 30.39 in 10.0 mi Calm Calm - N/A   Clear
9:55 PM 32.4 °F - 24.1 °F 72% 30.37 in 10.0 mi Calm Calm - N/A   Clear
10:55 PM 32.7 °F - 23.7 °F 69% 30.35 in 10.0 mi Calm Calm - N/A   Clear
11:55 PM 32.5 °F 29.3 °F 25.2 °F 74% 30.34 in 10.0 mi NNE 3.5 mph - N/A   Clear